Location: Aranbee
(34.0885°N, 118.2342°W)
Time: 11:53:20
(UTC+00:00)

Tiros 1 - Pass Details

Date: 03 December 2020
Orbit: 630 x 663 km, 48.4° (Epoch: 21 January)

Event Time Altitude Azimuth Distance (km) Brightness Sun altitude
Rises 23:19:39 0° 290° (WNW) 2,992 11.0 13.7°
Reaches altitude 10° 23:22:54 10° 312° (NW) 2,080 9.9 13.2°
Maximum altitude 23:25:49 16° 350° (N) 1,721 9.1 12.7°
Drops below altitude 10° 23:28:44 10° 28° (NNE) 2,076 9.3 12.2°
Sets 23:31:58 0° 50° (NE) 2,984 9.9 11.7°
